Time,TemperatureF,DewpointF,PressureIn,WindDirection,WindDirectionDegrees,WindSpeedMPH,WindSpeedGustMPH,Humidity,HourlyPrecipIn,Conditions,Clouds,dailyrainin,SoftwareType,DateUTC
2013-01-27 00:00:00,20.8,10.6,30.40,NW,314,28.0,33.0,64,0.00,,,0.00,meteohub,2013-01-27 05:00:00,
2013-01-27 00:01:00,20.8,8.8,30.40,NW,323,23.0,32.0,59,0.00,,,0.00,meteohub,2013-01-27 05:01:00,
2013-01-27 00:07:00,20.8,9.1,30.40,NNW,341,26.0,33.0,60,0.00,,,0.00,meteohub,2013-01-27 05:07:00,
2013-01-27 00:12:00,20.5,7.7,30.41,NW,325,29.0,33.0,57,0.00,,,0.00,meteohub,2013-01-27 05:12:00,
2013-01-27 00:17:00,20.5,7.7,30.41,NNW,338,26.0,35.0,57,0.00,,,0.00,meteohub,2013-01-27 05:17:00,
2013-01-27 00:22:00,20.5,9.1,30.41,WNW,301,28.0,35.0,61,0.00,,,0.00,meteohub,2013-01-27 05:22:00,
2013-01-27 00:27:00,20.1,7.7,30.41,NNW,338,22.0,35.0,58,0.00,,,0.00,meteohub,2013-01-27 05:27:00,
2013-01-27 00:32:00,20.1,7.7,30.41,NNW,333,24.0,35.0,58,0.00,,,0.00,meteohub,2013-01-27 05:32:00,
2013-01-27 00:37:00,20.1,8.4,30.42,NNW,347,25.0,33.0,60,0.00,,,0.00,meteohub,2013-01-27 05:37:00,
2013-01-27 00:42:00,20.1,9.1,30.42,NW,323,22.0,32.0,62,0.00,,,0.00,meteohub,2013-01-27 05:42:00,
2013-01-27 00:47:00,19.9,7.9,30.42,NNW,335,20.0,32.0,59,0.00,,,0.00,meteohub,2013-01-27 05:47:00,
2013-01-27 00:52:00,19.9,7.5,30.42,NNW,347,24.0,30.0,58,0.00,,,0.00,meteohub,2013-01-27 05:52:00,
2013-01-27 00:57:00,19.9,7.9,30.42,North,349,25.0,30.0,59,0.00,,,0.00,meteohub,2013-01-27 05:57:00,
2013-01-27 01:02:00,19.9,10.4,30.43,NNW,338,18.0,30.0,66,0.00,,,0.00,meteohub,2013-01-27 06:02:00,
2013-01-27 01:07:00,19.9,9.0,30.43,North,349,26.0,30.0,62,0.00,,,0.00,meteohub,2013-01-27 06:07:00,
2013-01-27 01:12:00,19.9,8.6,30.43,NNW,330,18.0,30.0,61,0.00,,,0.00,meteohub,2013-01-27 06:12:00,
2013-01-27 01:17:00,19.8,7.7,30.43,NW,311,27.0,30.0,59,0.00,,,0.00,meteohub,2013-01-27 06:17:00,
2013-01-27 01:22:00,19.9,9.7,30.43,NW,319,20.0,30.0,64,0.00,,,0.00,meteohub,2013-01-27 06:22:00,
2013-01-27 01:27:00,19.9,9.3,30.43,NNW,338,18.0,30.0,63,0.00,,,0.00,meteohub,2013-01-27 06:27:00,
2013-01-27 01:32:00,19.8,8.1,30.43,NNW,328,18.0,27.0,60,0.00,,,0.00,meteohub,2013-01-27 06:32:00,
2013-01-27 01:37:00,19.9,9.0,30.43,NW,323,25.0,27.0,62,0.00,,,0.00,meteohub,2013-01-27 06:37:00,
2013-01-27 01:42:00,19.8,8.4,30.43,NNW,343,22.0,27.0,61,0.00,,,0.00,meteohub,2013-01-27 06:42:00,
2013-01-27 01:47:00,19.8,8.8,30.44,NNW,335,23.0,30.0,62,0.00,,,0.00,meteohub,2013-01-27 06:47:00,
2013-01-27 01:52:00,19.9,9.3,30.44,NNW,330,22.0,30.0,63,0.00,,,0.00,meteohub,2013-01-27 06:52:00,
2013-01-27 01:57:00,19.9,9.3,30.44,NW,319,21.0,30.0,63,0.00,,,0.00,meteohub,2013-01-27 06:57:00,
2013-01-27 02:02:00,19.8,8.4,30.44,NNW,328,21.0,30.0,61,0.00,,,0.00,meteohub,2013-01-27 07:02:00,
2013-01-27 02:07:00,19.9,9.0,30.45,NW,323,21.0,30.0,62,0.00,,,0.00,meteohub,2013-01-27 07:07:00,
2013-01-27 02:13:00,19.9,9.0,30.45,NNW,333,18.0,30.0,62,0.00,,,0.00,meteohub,2013-01-27 07:13:00,
2013-01-27 02:18:00,19.9,9.3,30.45,NW,321,20.0,30.0,63,0.00,,,0.00,meteohub,2013-01-27 07:18:00,
2013-01-27 02:23:00,19.9,8.6,30.45,NNW,338,20.0,29.0,61,0.00,,,0.00,meteohub,2013-01-27 07:23:00,
2013-01-27 02:28:00,20.3,10.0,30.45,NNW,327,24.0,29.0,64,0.00,,,0.00,meteohub,2013-01-27 07:28:00,
2013-01-27 02:33:00,20.1,9.9,30.45,NW,323,25.0,28.0,64,0.00,,,0.00,meteohub,2013-01-27 07:33:00,
2013-01-27 02:38:00,20.5,10.9,30.45,WNW,297,29.0,29.0,66,0.00,,,0.00,meteohub,2013-01-27 07:38:00,
2013-01-27 02:43:00,20.5,10.2,30.46,NW,310,25.0,31.0,64,0.00,,,0.00,meteohub,2013-01-27 07:43:00,
2013-01-27 02:48:00,20.5,10.2,30.46,WNW,301,19.0,31.0,64,0.00,,,0.00,meteohub,2013-01-27 07:48:00,
2013-01-27 02:53:00,20.5,11.3,30.46,NW,304,30.0,31.0,67,0.00,,,0.00,meteohub,2013-01-27 07:53:00,
2013-01-27 02:58:00,20.3,10.0,30.45,NNW,335,19.0,34.0,64,0.00,,,0.00,meteohub,2013-01-27 07:58:00,
2013-01-27 03:03:00,20.5,11.7,30.46,NW,314,22.0,34.0,68,0.00,,,0.00,meteohub,2013-01-27 08:03:00,
2013-01-27 03:08:00,20.1,10.2,30.46,NNW,330,25.0,34.0,65,0.00,,,0.00,meteohub,2013-01-27 08:08:00,
2013-01-27 03:13:00,20.3,9.7,30.45,NW,323,26.0,33.0,63,0.00,,,0.00,meteohub,2013-01-27 08:13:00,
2013-01-27 03:18:00,20.5,10.9,30.45,NW,319,25.0,33.0,66,0.00,,,0.00,meteohub,2013-01-27 08:18:00,
2013-01-27 03:23:00,20.7,11.8,30.45,WNW,287,25.0,33.0,68,0.00,,,0.00,meteohub,2013-01-27 08:23:00,
2013-01-27 03:28:00,19.8,9.5,30.45,WNW,298,23.0,36.0,64,0.00,,,0.00,meteohub,2013-01-27 08:28:00,
2013-01-27 03:33:00,19.8,9.5,30.45,WNW,298,23.0,36.0,64,0.00,,,0.00,meteohub,2013-01-27 08:33:00,
2013-01-27 03:38:00,19.8,9.5,30.45,North,-999,-999.0,36.0,64,0.00,,,0.00,meteohub,2013-01-27 08:38:00,
2013-01-27 07:14:00,21.6,12.9,30.51,North,-999,-999.0,-999.0,69,-99.99,,,0.00,meteohub,2013-01-27 12:14:00,
2013-01-27 07:19:00,21.6,12.6,30.51,North,-999,-999.0,-999.0,68,-99.99,,,0.00,meteohub,2013-01-27 12:19:00,
2013-01-27 07:24:00,21.7,14.7,30.51,WNW,297,23.0,-999.0,74,0.00,,,0.00,meteohub,2013-01-27 12:24:00,
2013-01-27 07:29:00,21.7,13.8,30.51,WNW,300,18.0,27.0,71,0.00,,,0.00,meteohub,2013-01-27 12:29:00,
2013-01-27 07:34:00,21.6,12.9,30.51,WNW,290,27.0,28.0,69,0.00,,,0.00,meteohub,2013-01-27 12:34:00,
2013-01-27 07:39:00,21.7,14.2,30.51,WNW,299,27.0,29.0,72,0.00,,,0.00,meteohub,2013-01-27 12:39:00,
2013-01-27 07:44:00,21.7,14.2,30.52,WNW,298,24.0,30.0,72,0.00,,,0.00,meteohub,2013-01-27 12:44:00,
2013-01-27 07:49:00,21.6,12.9,30.52,NW,317,19.0,30.0,69,0.00,,,0.00,meteohub,2013-01-27 12:49:00,
2013-01-27 07:54:00,21.7,13.8,30.52,NW,307,19.0,29.0,71,0.00,,,0.00,meteohub,2013-01-27 12:54:00,
2013-01-27 07:59:00,21.7,13.8,30.52,WNW,295,21.0,29.0,71,0.00,,,0.00,meteohub,2013-01-27 12:59:00,
2013-01-27 08:04:00,21.9,13.3,30.52,NW,308,24.0,29.0,69,0.00,,,0.00,meteohub,2013-01-27 13:04:00,
2013-01-27 08:09:00,22.1,14.5,30.53,NW,310,18.0,26.0,72,0.00,,,0.00,meteohub,2013-01-27 13:09:00,
2013-01-27 08:14:00,22.3,14.9,30.53,NW,311,18.0,30.0,73,0.00,,,0.00,meteohub,2013-01-27 13:14:00,
2013-01-27 08:19:00,22.3,14.4,30.53,NW,310,23.0,30.0,71,0.00,,,0.00,meteohub,2013-01-27 13:19:00,
2013-01-27 08:24:00,22.3,13.6,30.53,NW,307,25.0,28.0,69,0.00,,,0.00,meteohub,2013-01-27 13:24:00,
2013-01-27 08:29:00,21.9,12.4,30.53,NW,316,21.0,31.0,66,0.00,,,0.00,meteohub,2013-01-27 13:29:00,
2013-01-27 08:34:00,22.1,12.2,30.53,NW,315,23.0,34.0,65,0.00,,,0.00,meteohub,2013-01-27 13:34:00,
2013-01-27 08:39:00,21.9,12.0,30.53,NW,315,28.0,34.0,65,0.00,,,0.00,meteohub,2013-01-27 13:39:00,
2013-01-27 08:44:00,22.3,12.9,30.53,NW,307,25.0,33.0,67,0.00,,,0.00,meteohub,2013-01-27 13:44:00,
2013-01-27 08:49:00,21.9,12.9,30.53,NNW,333,26.0,33.0,68,0.00,,,0.00,meteohub,2013-01-27 13:49:00,
2013-01-27 08:55:00,21.9,12.6,30.53,NW,310,25.0,34.0,67,0.00,,,0.00,meteohub,2013-01-27 13:55:00,
2013-01-27 09:00:00,22.3,12.9,30.54,NW,326,20.0,34.0,67,0.00,,,0.00,meteohub,2013-01-27 14:00:00,
2013-01-27 09:05:00,21.9,12.4,30.53,NNW,334,21.0,34.0,66,0.00,,,0.00,meteohub,2013-01-27 14:05:00,
2013-01-27 09:10:00,21.7,10.4,30.54,NNW,342,25.0,30.0,61,0.00,,,0.00,meteohub,2013-01-27 14:10:00,
2013-01-27 09:15:00,21.9,11.3,30.54,NW,315,23.0,30.0,63,0.00,,,0.00,meteohub,2013-01-27 14:15:00,
2013-01-27 09:20:00,21.9,12.4,30.54,NW,304,23.0,30.0,66,0.00,,,0.00,meteohub,2013-01-27 14:20:00,
2013-01-27 09:25:00,22.1,12.6,30.54,NW,313,17.0,30.0,66,0.00,,,0.00,meteohub,2013-01-27 14:25:00,
2013-01-27 09:30:00,21.9,10.6,30.54,NW,315,24.0,30.0,61,0.00,,,0.00,meteohub,2013-01-27 14:30:00,
2013-01-27 09:35:00,21.7,10.8,30.54,NNW,328,18.0,28.0,62,0.00,,,0.00,meteohub,2013-01-27 14:35:00,
2013-01-27 09:40:00,21.7,11.5,30.54,NW,323,18.0,29.0,64,0.00,,,0.00,meteohub,2013-01-27 14:40:00,
2013-01-27 09:45:00,21.7,11.1,30.54,NNW,327,19.0,29.0,63,0.00,,,0.00,meteohub,2013-01-27 14:45:00,
2013-01-27 09:50:00,22.1,12.2,30.54,North,352,18.0,29.0,65,0.00,,,0.00,meteohub,2013-01-27 14:50:00,
2013-01-27 09:55:00,22.3,12.0,30.54,NNW,336,19.0,27.0,64,0.00,,,0.00,meteohub,2013-01-27 14:55:00,
2013-01-27 10:00:00,22.1,10.8,30.54,NW,316,16.0,24.0,61,0.00,,,0.00,meteohub,2013-01-27 15:00:00,
2013-01-27 10:05:00,22.3,12.4,30.55,NW,307,22.0,24.0,65,0.00,,,0.00,meteohub,2013-01-27 15:05:00,
2013-01-27 10:10:00,22.3,12.7,30.55,NW,324,13.0,23.0,66,0.00,,,0.00,meteohub,2013-01-27 15:10:00,
2013-01-27 10:15:00,22.3,11.3,30.55,NW,309,13.0,23.0,62,0.00,,,0.00,meteohub,2013-01-27 15:15:00,
2013-01-27 10:20:00,22.5,10.2,30.56,WNW,293,17.0,23.0,59,0.00,,,0.00,meteohub,2013-01-27 15:20:00,
2013-01-27 10:25:00,22.6,12.7,30.56,NW,319,18.0,23.0,65,0.00,,,0.00,meteohub,2013-01-27 15:25:00,
2013-01-27 10:30:00,22.8,10.9,30.56,WNW,302,18.0,25.0,60,0.00,,,0.00,meteohub,2013-01-27 15:30:00,
2013-01-27 10:35:00,23.2,11.7,30.56,NW,325,16.0,25.0,61,0.00,,,0.00,meteohub,2013-01-27 15:35:00,
2013-01-27 10:40:00,23.4,10.8,30.56,NNW,330,14.0,25.0,58,0.00,,,0.00,meteohub,2013-01-27 15:40:00,
2013-01-27 10:45:00,24.1,12.6,30.56,NW,310,17.0,22.0,61,0.00,,,0.00,meteohub,2013-01-27 15:45:00,
2013-01-27 10:50:00,24.4,8.1,30.56,NNW,341,16.0,22.0,49,0.00,,,0.00,meteohub,2013-01-27 15:50:00,
2013-01-27 10:55:00,24.6,7.7,30.55,NW,321,16.0,23.0,48,0.00,,,0.00,meteohub,2013-01-27 15:55:00,
2013-01-27 11:00:00,25.0,8.1,30.56,NW,326,18.0,23.0,48,0.00,,,0.00,meteohub,2013-01-27 16:00:00,
2013-01-27 11:05:00,25.3,10.2,30.55,NNW,335,23.0,24.0,52,0.00,,,0.00,meteohub,2013-01-27 16:05:00,
2013-01-27 11:10:00,25.3,9.7,30.55,NNW,330,19.0,24.0,51,0.00,,,0.00,meteohub,2013-01-27 16:10:00,
2013-01-27 11:15:00,25.5,9.5,30.55,WNW,302,21.0,27.0,50,0.00,,,0.00,meteohub,2013-01-27 16:15:00,
2013-01-27 11:20:00,25.7,10.0,30.55,NNW,337,17.0,24.0,51,0.00,,,0.00,meteohub,2013-01-27 16:20:00,
2013-01-27 11:25:00,25.9,7.9,30.54,NNW,333,18.0,26.0,46,0.00,,,0.00,meteohub,2013-01-27 16:25:00,
2013-01-27 11:30:00,25.9,7.9,30.54,NW,326,18.0,26.0,46,0.00,,,0.00,meteohub,2013-01-27 16:30:00,
2013-01-27 11:35:00,26.1,10.0,30.54,NNW,332,20.0,26.0,50,0.00,,,0.00,meteohub,2013-01-27 16:35:00,
2013-01-27 11:40:00,26.1,7.2,30.54,NW,325,18.0,23.0,44,0.00,,,0.00,meteohub,2013-01-27 16:40:00,
2013-01-27 11:45:00,26.2,8.2,30.53,NNW,335,18.0,23.0,46,0.00,,,0.00,meteohub,2013-01-27 16:45:00,
2013-01-27 11:50:00,26.2,6.3,30.53,NW,319,19.0,24.0,42,0.00,,,0.00,meteohub,2013-01-27 16:50:00,
2013-01-27 11:55:00,26.4,5.9,30.53,NW,319,20.0,29.0,41,0.00,,,0.00,meteohub,2013-01-27 16:55:00,
2013-01-27 12:00:00,26.6,6.1,30.53,North,353,16.0,29.0,41,0.00,,,0.00,meteohub,2013-01-27 17:00:00,
2013-01-27 12:05:00,26.8,7.3,30.53,NW,321,18.0,29.0,43,0.00,,,0.00,meteohub,2013-01-27 17:05:00,
2013-01-27 12:10:00,27.0,7.9,30.52,NNW,335,19.0,22.0,44,0.00,,,0.00,meteohub,2013-01-27 17:10:00,
2013-01-27 12:15:00,27.0,8.4,30.52,NNW,335,16.0,24.0,45,0.00,,,0.00,meteohub,2013-01-27 17:15:00,
2013-01-27 12:20:00,27.3,10.8,30.52,NNW,342,16.0,24.0,49,0.00,,,0.00,meteohub,2013-01-27 17:20:00,
2013-01-27 12:25:00,27.7,8.6,30.52,NW,326,20.0,24.0,44,0.00,,,0.00,meteohub,2013-01-27 17:25:00,
2013-01-27 12:30:00,27.9,6.6,30.52,NNW,336,19.0,23.0,40,0.00,,,0.00,meteohub,2013-01-27 17:30:00,
2013-01-27 12:35:00,27.9,6.1,30.51,NNW,333,21.0,25.0,39,0.00,,,0.00,meteohub,2013-01-27 17:35:00,
2013-01-27 12:40:00,27.9,5.5,30.52,NW,315,18.0,25.0,38,0.00,,,0.00,meteohub,2013-01-27 17:40:00,
2013-01-27 12:45:00,28.2,6.4,30.51,NW,319,20.0,25.0,39,0.00,,,0.00,meteohub,2013-01-27 17:45:00,
2013-01-27 12:50:00,28.6,8.4,30.51,NNW,330,15.0,25.0,42,0.00,,,0.00,meteohub,2013-01-27 17:50:00,
2013-01-27 12:55:00,28.8,5.2,30.51,NNW,331,19.0,23.0,36,0.00,,,0.00,meteohub,2013-01-27 17:55:00,
2013-01-27 13:00:00,28.8,6.3,30.51,NW,323,14.0,22.0,38,0.00,,,0.00,meteohub,2013-01-27 18:00:00,
2013-01-27 13:05:00,28.9,7.2,30.51,NW,321,19.0,22.0,39,0.00,,,0.00,meteohub,2013-01-27 18:05:00,
2013-01-27 13:10:00,28.9,6.4,30.50,NW,316,17.0,20.0,38,0.00,,,0.00,meteohub,2013-01-27 18:10:00,
2013-01-27 13:15:00,28.9,10.2,30.50,NW,304,17.0,21.0,45,0.00,,,0.00,meteohub,2013-01-27 18:15:00,
2013-01-27 13:20:00,29.1,11.5,30.50,NW,304,18.0,21.0,47,0.00,,,0.00,meteohub,2013-01-27 18:20:00,
2013-01-27 13:25:00,29.5,7.5,30.49,NNW,345,19.0,21.0,39,0.00,,,0.00,meteohub,2013-01-27 18:25:00,
2013-01-27 13:30:00,29.7,5.4,30.49,NNW,342,13.0,21.0,35,0.00,,,0.00,meteohub,2013-01-27 18:30:00,
2013-01-27 13:36:00,29.7,4.6,30.48,NNW,329,19.0,21.0,34,0.00,,,0.00,meteohub,2013-01-27 18:36:00,
2013-01-27 13:41:00,29.7,5.4,30.48,NNW,335,15.0,23.0,35,0.00,,,0.00,meteohub,2013-01-27 18:41:00,
2013-01-27 13:46:00,29.8,6.1,30.49,NW,321,14.0,23.0,36,0.00,,,0.00,meteohub,2013-01-27 18:46:00,
2013-01-27 13:51:00,30.0,5.0,30.48,NNW,333,16.0,21.0,34,0.00,,,0.00,meteohub,2013-01-27 18:51:00,
2013-01-27 13:56:00,30.0,6.3,30.49,NNW,330,17.0,21.0,36,0.00,,,0.00,meteohub,2013-01-27 18:56:00,
2013-01-27 14:01:00,30.2,7.0,30.48,NNW,336,17.0,20.0,37,0.00,,,0.00,meteohub,2013-01-27 19:01:00,
2013-01-27 14:06:00,30.4,6.6,30.49,NNW,338,17.0,19.0,36,0.00,,,0.00,meteohub,2013-01-27 19:06:00,
2013-01-27 14:11:00,30.6,4.8,30.49,NW,321,14.0,19.0,33,0.00,,,0.00,meteohub,2013-01-27 19:11:00,
2013-01-27 14:16:00,30.7,8.8,30.49,NNW,329,12.0,19.0,39,0.00,,,0.00,meteohub,2013-01-27 19:16:00,
2013-01-27 14:21:00,30.7,7.5,30.48,NW,326,16.0,19.0,37,0.00,,,0.00,meteohub,2013-01-27 19:21:00,
2013-01-27 14:26:00,30.7,5.7,30.48,NNW,328,15.0,19.0,34,0.00,,,0.00,meteohub,2013-01-27 19:26:00,
2013-01-27 14:31:00,30.7,5.7,30.48,NW,315,11.0,19.0,34,0.00,,,0.00,meteohub,2013-01-27 19:31:00,
2013-01-27 14:36:00,31.1,7.3,30.48,NNW,332,13.0,19.0,36,0.00,,,0.00,meteohub,2013-01-27 19:36:00,
2013-01-27 14:41:00,31.3,6.1,30.48,NW,325,15.0,18.0,34,0.00,,,0.00,meteohub,2013-01-27 19:41:00,
2013-01-27 14:46:00,31.3,7.3,30.48,NW,321,14.0,18.0,36,0.00,,,0.00,meteohub,2013-01-27 19:46:00,
2013-01-27 14:51:00,31.5,8.2,30.48,NNW,330,15.0,18.0,37,0.00,,,0.00,meteohub,2013-01-27 19:51:00,
2013-01-27 14:56:00,31.6,7.2,30.48,NNW,344,14.0,17.0,35,0.00,,,0.00,meteohub,2013-01-27 19:56:00,
2013-01-27 15:01:00,31.6,7.7,30.48,NW,315,15.0,17.0,36,0.00,,,0.00,meteohub,2013-01-27 20:01:00,
2013-01-27 15:06:00,31.6,6.4,30.48,NNW,336,14.0,17.0,34,0.00,,,0.00,meteohub,2013-01-27 20:06:00,
2013-01-27 15:11:00,31.8,7.9,30.49,NNW,340,15.0,19.0,36,0.00,,,0.00,meteohub,2013-01-27 20:11:00,
2013-01-27 15:16:00,31.8,6.6,30.49,NNW,330,13.0,19.0,34,0.00,,,0.00,meteohub,2013-01-27 20:16:00,
2013-01-27 15:21:00,32.2,8.2,30.49,NW,326,16.0,18.0,36,0.00,,,0.00,meteohub,2013-01-27 20:21:00,
2013-01-27 15:26:00,32.4,5.0,30.49,NW,307,19.0,21.0,31,0.00,,,0.00,meteohub,2013-01-27 20:26:00,
2013-01-27 15:31:00,32.4,7.7,30.49,NW,316,16.0,21.0,35,0.00,,,0.00,meteohub,2013-01-27 20:31:00,
2013-01-27 15:36:00,32.5,7.9,30.49,NNW,338,15.0,21.0,35,0.00,,,0.00,meteohub,2013-01-27 20:36:00,
2013-01-27 15:41:00,32.5,6.6,30.49,NW,314,15.0,20.0,33,0.00,,,0.00,meteohub,2013-01-27 20:41:00,
2013-01-27 15:46:00,32.5,6.6,30.49,NNW,333,15.0,19.0,33,0.00,,,0.00,meteohub,2013-01-27 20:46:00,
2013-01-27 15:51:00,32.7,6.1,30.49,NW,323,14.0,19.0,32,0.00,,,0.00,meteohub,2013-01-27 20:51:00,
2013-01-27 15:56:00,32.7,10.4,30.49,NW,309,17.0,19.0,39,0.00,,,0.00,meteohub,2013-01-27 20:56:00,
2013-01-27 16:01:00,32.7,7.5,30.49,NNW,329,16.0,19.0,34,0.00,,,0.00,meteohub,2013-01-27 21:01:00,
2013-01-27 16:06:00,32.7,8.8,30.49,NW,310,16.0,20.0,36,0.00,,,0.00,meteohub,2013-01-27 21:06:00,
2013-01-27 16:11:00,32.7,8.1,30.50,WNW,297,17.0,20.0,35,0.00,,,0.00,meteohub,2013-01-27 21:11:00,
2013-01-27 16:16:00,32.9,8.8,30.49,NW,325,14.0,21.0,36,0.00,,,0.00,meteohub,2013-01-27 21:16:00,
2013-01-27 16:21:00,32.9,7.5,30.49,NNW,336,20.0,21.0,34,0.00,,,0.00,meteohub,2013-01-27 21:21:00,
2013-01-27 16:26:00,32.7,9.3,30.49,NNW,338,14.0,21.0,37,0.00,,,0.00,meteohub,2013-01-27 21:26:00,
2013-01-27 16:31:00,32.7,6.1,30.49,NW,316,14.0,21.0,32,0.00,,,0.00,meteohub,2013-01-27 21:31:00,
2013-01-27 16:36:00,32.5,10.4,30.49,NW,315,15.0,21.0,39,0.00,,,0.00,meteohub,2013-01-27 21:36:00,
2013-01-27 16:41:00,32.5,7.9,30.50,NW,316,16.0,21.0,35,0.00,,,0.00,meteohub,2013-01-27 21:41:00,
2013-01-27 16:46:00,32.4,6.4,30.50,NNW,345,14.0,22.0,33,0.00,,,0.00,meteohub,2013-01-27 21:46:00,
2013-01-27 16:51:00,32.4,7.7,30.50,NNW,344,19.0,23.0,35,0.00,,,0.00,meteohub,2013-01-27 21:51:00,
2013-01-27 16:56:00,32.4,7.2,30.50,NNW,332,18.0,23.0,34,0.00,,,0.00,meteohub,2013-01-27 21:56:00,
2013-01-27 17:01:00,32.4,5.7,30.51,NW,321,15.0,23.0,32,0.00,,,0.00,meteohub,2013-01-27 22:01:00,
2013-01-27 17:06:00,32.4,5.7,30.51,NNW,333,23.0,24.0,32,0.00,,,0.00,meteohub,2013-01-27 22:06:00,
2013-01-27 17:12:00,32.4,5.7,30.51,NNW,330,19.0,24.0,32,0.00,,,0.00,meteohub,2013-01-27 22:12:00,
2013-01-27 17:17:00,32.4,6.4,30.51,NNW,342,14.0,24.0,33,0.00,,,0.00,meteohub,2013-01-27 22:17:00,
2013-01-27 17:22:00,32.2,7.0,30.51,NNW,343,15.0,24.0,34,0.00,,,0.00,meteohub,2013-01-27 22:22:00,
2013-01-27 17:27:00,32.2,9.5,30.52,NNW,332,15.0,22.0,38,0.00,,,0.00,meteohub,2013-01-27 22:27:00,
2013-01-27 17:32:00,32.2,8.8,30.52,NNW,335,16.0,20.0,37,0.00,,,0.00,meteohub,2013-01-27 22:32:00,
2013-01-27 17:37:00,32.4,10.2,30.53,NNW,332,18.0,20.0,39,0.00,,,0.00,meteohub,2013-01-27 22:37:00,
2013-01-27 17:42:00,32.2,8.8,30.53,NNW,332,17.0,20.0,37,0.00,,,0.00,meteohub,2013-01-27 22:42:00,
2013-01-27 17:47:00,32.4,10.2,30.54,NW,326,17.0,21.0,39,0.00,,,0.00,meteohub,2013-01-27 22:47:00,
2013-01-27 17:52:00,32.4,7.7,30.54,NNW,330,19.0,23.0,35,0.00,,,0.00,meteohub,2013-01-27 22:52:00,
2013-01-27 17:57:00,32.2,6.3,30.53,NNW,338,20.0,23.0,33,0.00,,,0.00,meteohub,2013-01-27 22:57:00,
2013-01-27 18:02:00,32.2,8.2,30.53,NNW,343,19.0,23.0,36,0.00,,,0.00,meteohub,2013-01-27 23:02:00,
2013-01-27 18:07:00,31.8,8.4,30.53,NNW,332,14.0,22.0,37,0.00,,,0.00,meteohub,2013-01-27 23:07:00,
2013-01-27 18:12:00,31.6,8.4,30.53,NNE,18,16.0,22.0,37,0.00,,,0.00,meteohub,2013-01-27 23:12:00,
2013-01-27 18:17:00,31.5,7.0,30.53,NNW,345,14.0,21.0,35,0.00,,,0.00,meteohub,2013-01-27 23:17:00,
2013-01-27 18:22:00,31.3,6.8,30.54,North,356,17.0,21.0,35,0.00,,,0.00,meteohub,2013-01-27 23:22:00,
2013-01-27 18:27:00,31.3,8.1,30.54,North,352,16.0,21.0,37,0.00,,,0.00,meteohub,2013-01-27 23:27:00,
2013-01-27 18:32:00,31.1,7.9,30.54,NNW,340,16.0,19.0,37,0.00,,,0.00,meteohub,2013-01-27 23:32:00,
2013-01-27 18:37:00,30.9,7.2,30.54,NNW,334,15.0,20.0,36,0.00,,,0.00,meteohub,2013-01-27 23:37:00,
2013-01-27 18:42:00,30.9,7.2,30.54,NNW,347,15.0,20.0,36,0.00,,,0.00,meteohub,2013-01-27 23:42:00,
2013-01-27 18:47:00,30.7,5.7,30.54,NNW,342,12.0,19.0,34,0.00,,,0.00,meteohub,2013-01-27 23:47:00,
2013-01-27 18:52:00,30.7,7.5,30.54,NNW,346,15.0,18.0,37,0.00,,,0.00,meteohub,2013-01-27 23:52:00,
2013-01-27 18:57:00,30.6,7.9,30.54,North,356,14.0,18.0,38,0.00,,,0.00,meteohub,2013-01-27 23:57:00,
2013-01-27 19:02:00,30.6,6.8,30.54,NNW,328,14.0,18.0,36,0.00,,,0.00,meteohub,2013-01-28 00:02:00,
2013-01-27 19:07:00,30.6,7.3,30.54,NW,326,12.0,18.0,37,0.00,,,0.00,meteohub,2013-01-28 00:07:00,
2013-01-27 19:12:00,30.6,7.3,30.55,NNW,340,12.0,18.0,37,0.00,,,0.00,meteohub,2013-01-28 00:12:00,
2013-01-27 19:17:00,30.6,7.9,30.55,NNW,338,12.0,17.0,38,0.00,,,0.00,meteohub,2013-01-28 00:17:00,
2013-01-27 19:22:00,30.6,7.3,30.55,NNW,338,11.0,15.0,37,0.00,,,0.00,meteohub,2013-01-28 00:22:00,
2013-01-27 19:27:00,30.6,8.6,30.55,NNW,336,11.0,14.0,39,0.00,,,0.00,meteohub,2013-01-28 00:27:00,
2013-01-27 19:32:00,30.6,8.6,30.55,North,349,9.0,14.0,39,0.00,,,0.00,meteohub,2013-01-28 00:32:00,
2013-01-27 19:37:00,30.6,7.9,30.55,NNW,344,10.0,14.0,38,0.00,,,0.00,meteohub,2013-01-28 00:37:00,
2013-01-27 19:42:00,30.6,8.6,30.56,NNW,339,14.0,14.0,39,0.00,,,0.00,meteohub,2013-01-28 00:42:00,
2013-01-27 19:47:00,30.6,7.9,30.56,NNW,344,13.0,16.0,38,0.00,,,0.00,meteohub,2013-01-28 00:47:00,
2013-01-27 19:51:00,30.6,9.1,30.56,North,354,9.0,16.0,40,0.00,,,0.00,meteohub,2013-01-28 00:51:00,
2013-01-27 19:56:00,30.6,9.1,30.56,North,11,14.0,16.0,40,0.00,,,0.00,meteohub,2013-01-28 00:56:00,
2013-01-27 20:02:00,30.4,8.4,30.56,NNW,343,11.0,15.0,39,0.00,,,0.00,meteohub,2013-01-28 01:02:00,
2013-01-27 20:07:00,30.4,9.0,30.56,North,355,12.0,15.0,40,0.00,,,0.00,meteohub,2013-01-28 01:07:00,
2013-01-27 20:12:00,30.2,8.8,30.56,NNE,13,8.0,15.0,40,0.00,,,0.00,meteohub,2013-01-28 01:12:00,
2013-01-27 20:17:00,30.0,8.1,30.56,North,1,12.0,15.0,39,0.00,,,0.00,meteohub,2013-01-28 01:17:00,
2013-01-27 20:22:00,30.0,8.1,30.56,NNW,336,11.0,15.0,39,0.00,,,0.00,meteohub,2013-01-28 01:22:00,
2013-01-27 20:27:00,30.0,8.6,30.56,NNE,23,10.0,13.0,40,0.00,,,0.00,meteohub,2013-01-28 01:27:00,
2013-01-27 20:32:00,30.0,7.5,30.56,NNE,21,13.0,14.0,38,0.00,,,0.00,meteohub,2013-01-28 01:32:00,
2013-01-27 20:37:00,30.0,8.1,30.56,North,354,9.0,14.0,39,0.00,,,0.00,meteohub,2013-01-28 01:37:00,
2013-01-27 20:42:00,29.8,6.8,30.56,NNW,332,9.0,14.0,37,0.00,,,0.00,meteohub,2013-01-28 01:42:00,
2013-01-27 20:47:00,29.8,7.9,30.56,NNW,345,11.0,14.0,39,0.00,,,0.00,meteohub,2013-01-28 01:47:00,
2013-01-27 20:52:00,29.8,8.4,30.56,NNW,338,8.0,14.0,40,0.00,,,0.00,meteohub,2013-01-28 01:52:00,
2013-01-27 20:57:00,29.8,9.0,30.56,North,349,10.0,14.0,41,0.00,,,0.00,meteohub,2013-01-28 01:57:00,
2013-01-27 21:02:00,29.7,9.9,30.56,NNW,344,10.0,14.0,43,0.00,,,0.00,meteohub,2013-01-28 02:02:00,
2013-01-27 21:07:00,29.8,8.4,30.56,NNE,20,8.0,12.0,40,0.00,,,0.00,meteohub,2013-01-28 02:07:00,
2013-01-27 21:12:00,29.7,9.3,30.56,North,8,9.0,12.0,42,0.00,,,0.00,meteohub,2013-01-28 02:12:00,
2013-01-27 21:17:00,29.5,7.0,30.56,North,349,7.0,12.0,38,0.00,,,0.00,meteohub,2013-01-28 02:17:00,
2013-01-27 21:22:00,29.5,8.6,30.56,North,352,7.0,12.0,41,0.00,,,0.00,meteohub,2013-01-28 02:22:00,
2013-01-27 21:27:00,29.5,8.1,30.56,North,352,7.0,12.0,40,0.00,,,0.00,meteohub,2013-01-28 02:27:00,
2013-01-27 21:32:00,29.5,8.6,30.56,NNE,29,6.0,11.0,41,0.00,,,0.00,meteohub,2013-01-28 02:32:00,
2013-01-27 21:37:00,29.5,8.6,30.56,NNE,27,7.0,11.0,41,0.00,,,0.00,meteohub,2013-01-28 02:37:00,
2013-01-27 21:42:00,29.5,7.0,30.56,North,352,5.0,11.0,38,0.00,,,0.00,meteohub,2013-01-28 02:42:00,
2013-01-27 21:47:00,29.3,8.6,30.56,NNW,345,7.0,11.0,41,0.00,,,0.00,meteohub,2013-01-28 02:47:00,
2013-01-27 21:52:00,29.3,6.8,30.56,NNW,338,8.0,11.0,38,0.00,,,0.00,meteohub,2013-01-28 02:52:00,
2013-01-27 21:57:00,29.3,7.3,30.56,North,353,7.0,10.0,39,0.00,,,0.00,meteohub,2013-01-28 02:57:00,
2013-01-27 22:02:00,29.1,7.2,30.56,North,349,6.0,10.0,39,0.00,,,0.00,meteohub,2013-01-28 03:02:00,
2013-01-27 22:07:00,29.1,6.1,30.57,NNW,335,9.0,9.0,37,0.00,,,0.00,meteohub,2013-01-28 03:07:00,
2013-01-27 22:12:00,29.1,7.2,30.56,North,349,9.0,10.0,39,0.00,,,0.00,meteohub,2013-01-28 03:12:00,
2013-01-27 22:17:00,29.1,6.6,30.56,North,351,8.0,10.0,38,0.00,,,0.00,meteohub,2013-01-28 03:17:00,
2013-01-27 22:22:00,29.1,9.3,30.56,NNW,338,8.0,10.0,43,0.00,,,0.00,meteohub,2013-01-28 03:22:00,
2013-01-27 22:27:00,29.1,5.5,30.56,NNW,340,7.0,10.0,36,0.00,,,0.00,meteohub,2013-01-28 03:27:00,
2013-01-27 22:32:00,29.1,9.0,30.56,NNW,344,7.0,10.0,42,0.00,,,0.00,meteohub,2013-01-28 03:32:00,
2013-01-27 22:37:00,29.1,6.1,30.56,North,355,8.0,10.0,37,0.00,,,0.00,meteohub,2013-01-28 03:37:00,
2013-01-27 22:42:00,29.1,6.6,30.57,NNW,342,9.0,11.0,38,0.00,,,0.00,meteohub,2013-01-28 03:42:00,
2013-01-27 22:47:00,29.3,7.3,30.57,NNW,343,9.0,11.0,39,0.00,,,0.00,meteohub,2013-01-28 03:47:00,
2013-01-27 22:52:00,29.3,7.9,30.57,North,0,8.0,11.0,40,0.00,,,0.00,meteohub,2013-01-28 03:52:00,
2013-01-27 22:57:00,29.1,8.4,30.57,NNW,347,7.0,11.0,41,0.00,,,0.00,meteohub,2013-01-28 03:57:00,
2013-01-27 23:02:00,29.1,7.9,30.57,NNW,347,6.0,11.0,40,0.00,,,0.00,meteohub,2013-01-28 04:02:00,
2013-01-27 23:07:00,28.9,8.8,30.56,North,8,8.0,11.0,42,0.00,,,0.00,meteohub,2013-01-28 04:07:00,
2013-01-27 23:12:00,28.9,8.8,30.56,NNW,344,5.0,10.0,42,0.00,,,0.00,meteohub,2013-01-28 04:12:00,
2013-01-27 23:17:00,28.9,8.2,30.56,NNE,23,4.0,9.0,41,0.00,,,0.00,meteohub,2013-01-28 04:17:00,
2013-01-27 23:22:00,28.8,8.6,30.56,North,351,5.0,8.0,42,0.00,,,0.00,meteohub,2013-01-28 04:22:00,
2013-01-27 23:27:00,28.8,8.6,30.56,North,353,5.0,7.0,42,0.00,,,0.00,meteohub,2013-01-28 04:27:00,
2013-01-27 23:32:00,28.8,9.1,30.56,NNE,13,5.0,6.0,43,0.00,,,0.00,meteohub,2013-01-28 04:32:00,
2013-01-27 23:37:00,28.8,9.1,30.56,North,5,5.0,7.0,43,0.00,,,0.00,meteohub,2013-01-28 04:37:00,
2013-01-27 23:42:00,28.6,9.9,30.56,North,11,7.0,7.0,45,0.00,,,0.00,meteohub,2013-01-28 04:42:00,
2013-01-27 23:47:00,28.6,8.4,30.56,NNE,22,6.0,7.0,42,0.00,,,0.00,meteohub,2013-01-28 04:47:00,
2013-01-27 23:52:00,28.6,9.0,30.56,North,0,5.0,7.0,43,0.00,,,0.00,meteohub,2013-01-28 04:52:00,
2013-01-27 23:57:00,28.8,8.6,30.56,North,358,5.0,8.0,42,0.00,,,0.00,meteohub,2013-01-28 04:57:00,